When you browse on this site, cookies collect data to enhance your experience and personalize the content and advertising you see.
Visit our Privacy Policy to learn more. By continuing to use the site, you agree to this use of cookies and data.
  • In Österreich
  • Länderverzeichnis
  • Für 7 Tage
  • Wassertemperatur
  • Wetterkarte
  • News
  • Widgets
  • user-avatar
    Anmelden

    Stündliche Wetter Gerasimovka

    Heute, 3 Juni, Mittwoch

    Zeit Temperatur Niederschläge Wind Luftdruck Luftfeuchtigkeit
    00:00 +17°C° 0 mm 5 m/S 752 mmHg 71%
    01:00 +17°C° 0 mm 5 m/S 752 mmHg 71%
    02:00 +16°C° 0 mm 5 m/S 752 mmHg 71%
    03:00 +17°C° 0 mm 4 m/S 752 mmHg 71%
    04:00 +16°C° 0 mm 3 m/S 752 mmHg 72%
    05:00 +17°C° 0 mm 4 m/S 752 mmHg 70%
    06:00 +19°C° 0 mm 5 m/S 752 mmHg 69%
    07:00 +20°C° 0 mm 5 m/S 752 mmHg 67%
    08:00 +22°C° 0 mm 5 m/S 752 mmHg 62%
    09:00 +23°C° 0 mm 5 m/S 752 mmHg 57%
    10:00 +26°C° 0 mm 5 m/S 752 mmHg 53%
    11:00 +27°C° 0 mm 6 m/S 752 mmHg 49%
    12:00 +28°C° 0 mm 6 m/S 752 mmHg 45%
    13:00 +28°C° 0 mm 6 m/S 752 mmHg 41%
    14:00 +28°C° 0 mm 6 m/S 752 mmHg 42%
    15:00 +28°C° 0 mm 6 m/S 752 mmHg 42%
    16:00 +28°C° 0 mm 6 m/S 752 mmHg 43%
    17:00 +27°C° 0 mm 6 m/S 752 mmHg 49%
    18:00 +26°C° 0 mm 5 m/S 751 mmHg 54%
    19:00 +25°C° 0 mm 5 m/S 751 mmHg 60%
    20:00 +23°C° 0 mm 5 m/S 751 mmHg 61%
    21:00 +23°C° 0 mm 6 m/S 751 mmHg 62%
    22:00 +22°C° 0 mm 7 m/S 751 mmHg 63%
    23:00 +21°C° 0 mm 7 m/S 751 mmHg 64%

    Morgen, 4 Juni, Donnerstag

    Zeit Temperatur Niederschläge Wind Luftdruck Luftfeuchtigkeit
    00:00 +21°C° 0 mm 8 m/S 751 mmHg 65%
    01:00 +20°C° 0 mm 8 m/S 750 mmHg 66%
    02:00 +20°C° 0 mm 8 m/S 750 mmHg 65%
    03:00 +20°C° 0 mm 7 m/S 750 mmHg 65%
    04:00 +20°C° 0 mm 6 m/S 750 mmHg 64%
    05:00 +20°C° 0 mm 7 m/S 750 mmHg 64%
    06:00 +20°C° 0 mm 7 m/S 750 mmHg 64%
    07:00 +20°C° 0 mm 8 m/S 750 mmHg 64%
    08:00 +21°C° 0 mm 8 m/S 751 mmHg 62%
    09:00 +22°C° 0 mm 8 m/S 751 mmHg 59%
    10:00 +22°C° 0 mm 7 m/S 751 mmHg 57%
    11:00 +23°C° 0 mm 7 m/S 751 mmHg 56%
    12:00 +24°C° 0 mm 8 m/S 751 mmHg 54%
    13:00 +24°C° 0 mm 8 m/S 751 mmHg 53%
    14:00 +24°C° 0 mm 7 m/S 751 mmHg 54%
    15:00 +24°C° 0 mm 6 m/S 751 mmHg 55%
    16:00 +23°C° 0 mm 6 m/S 752 mmHg 57%
    17:00 +23°C° 0.1 mm 6 m/S 752 mmHg 57%
    18:00 +22°C° 0.1 mm 6 m/S 751 mmHg 58%
    19:00 +21°C° 0.1 mm 6 m/S 751 mmHg 59%
    20:00 +21°C° 0 mm 6 m/S 752 mmHg 56%
    21:00 +20°C° 0 mm 7 m/S 752 mmHg 54%
    22:00 +20°C° 0 mm 8 m/S 752 mmHg 51%
    23:00 +20°C° 0 mm 7 m/S 752 mmHg 49%

    übermorgen, 5 Juni, Freitag

    Zeit Temperatur Niederschläge Wind Luftdruck Luftfeuchtigkeit
    00:00 +20°C° 0 mm 7 m/S 752 mmHg 46%
    01:00 +19°C° 0 mm 6 m/S 752 mmHg 44%
    02:00 +19°C° 0 mm 6 m/S 752 mmHg 44%
    03:00 +19°C° 0 mm 6 m/S 753 mmHg 43%
    04:00 +18°C° 0 mm 7 m/S 753 mmHg 43%
    05:00 +17°C° 0 mm 7 m/S 753 mmHg 46%
    06:00 +17°C° 0 mm 7 m/S 753 mmHg 49%
    07:00 +17°C° 0 mm 7 m/S 753 mmHg 52%
    08:00 +17°C° 0 mm 7 m/S 753 mmHg 53%
    09:00 +17°C° 0 mm 8 m/S 754 mmHg 55%
    10:00 +17°C° 0 mm 8 m/S 754 mmHg 56%
    11:00 +18°C° 0 mm 8 m/S 754 mmHg 55%
    12:00 +20°C° 0 mm 8 m/S 754 mmHg 53%
    13:00 +21°C° 0 mm 8 m/S 754 mmHg 52%
    14:00 +22°C° 0 mm 8 m/S 754 mmHg 51%
    15:00 +22°C° 0 mm 8 m/S 754 mmHg 50%
    16:00 +23°C° 0 mm 8 m/S 754 mmHg 49%
    17:00 +22°C° 0 mm 8 m/S 754 mmHg 52%
    18:00 +21°C° 0 mm 7 m/S 754 mmHg 55%
    19:00 +20°C° 0 mm 7 m/S 754 mmHg 58%
    20:00 +18°C° 0 mm 7 m/S 755 mmHg 57%
    21:00 +17°C° 0 mm 6 m/S 755 mmHg 57%
    22:00 +16°C° 0 mm 6 m/S 755 mmHg 56%
    23:00 +16°C° 0 mm 6 m/S 755 mmHg 56%

    6 Juni, Samstag

    Zeit Temperatur Niederschläge Wind Luftdruck Luftfeuchtigkeit
    00:00 +16°C° 0 mm 5 m/S 755 mmHg 55%
    01:00 +15°C° 0 mm 5 m/S 755 mmHg 54%
    02:00 +16°C° 0 mm 5 m/S 755 mmHg 53%
    03:00 +16°C° 0 mm 5 m/S 755 mmHg 51%
    04:00 +17°C° 0 mm 4 m/S 756 mmHg 49%
    05:00 +16°C° 0 mm 5 m/S 756 mmHg 52%
    06:00 +15°C° 0 mm 5 m/S 756 mmHg 56%
    07:00 +15°C° 0 mm 6 m/S 756 mmHg 59%
    08:00 +16°C° 0 mm 6 m/S 756 mmHg 59%
    09:00 +17°C° 0 mm 6 m/S 756 mmHg 58%
    10:00 +17°C° 0 mm 6 m/S 756 mmHg 58%
    11:00 +19°C° 0 mm 5 m/S 756 mmHg 56%
    12:00 +20°C° 0 mm 5 m/S 757 mmHg 54%
    13:00 +21°C° 0 mm 5 m/S 757 mmHg 52%
    14:00 +21°C° 0 mm 5 m/S 757 mmHg 53%
    15:00 +21°C° 0 mm 5 m/S 757 mmHg 54%
    16:00 +21°C° 0 mm 5 m/S 757 mmHg 55%
    17:00 +20°C° 0 mm 5 m/S 757 mmHg 58%
    18:00 +19°C° 0 mm 4 m/S 757 mmHg 61%
    19:00 +19°C° 0 mm 4 m/S 757 mmHg 64%
    20:00 +17°C° 0 mm 4 m/S 757 mmHg 68%
    21:00 +15°C° 0 mm 4 m/S 757 mmHg 72%
    22:00 +14°C° 0 mm 4 m/S 758 mmHg 76%
    23:00 +13°C° 0 mm 4 m/S 758 mmHg 75%

    7 Juni, Sonntag

    Zeit Temperatur Niederschläge Wind Luftdruck Luftfeuchtigkeit
    00:00 +13°C° 0 mm 4 m/S 758 mmHg 74%
    01:00 +12°C° 0 mm 4 m/S 758 mmHg 73%
    02:00 +12°C° 0 mm 4 m/S 758 mmHg 71%
    03:00 +12°C° 0 mm 4 m/S 758 mmHg 68%
    04:00 +12°C° 0 mm 4 m/S 758 mmHg 66%
    05:00 +13°C° 0 mm 4 m/S 758 mmHg 64%
    06:00 +14°C° 0 mm 5 m/S 758 mmHg 62%
    07:00 +15°C° 0 mm 5 m/S 759 mmHg 60%
    08:00 +17°C° 0 mm 5 m/S 759 mmHg 56%
    09:00 +20°C° 0 mm 5 m/S 759 mmHg 51%
    10:00 +22°C° 0 mm 6 m/S 759 mmHg 46%
    11:00 +23°C° 0 mm 6 m/S 759 mmHg 43%
    12:00 +24°C° 0 mm 6 m/S 759 mmHg 40%
    13:00 +26°C° 0 mm 6 m/S 759 mmHg 37%
    14:00 +26°C° 0 mm 6 m/S 759 mmHg 39%
    15:00 +24°C° 0 mm 6 m/S 759 mmHg 42%
    16:00 +25°C° 0 mm 5 m/S 759 mmHg 44%
    17:00 +23°C° 0 mm 4 m/S 759 mmHg 48%
    18:00 +22°C° 0 mm 3 m/S 759 mmHg 52%
    19:00 +21°C° 0 mm 2 m/S 759 mmHg 57%
    20:00 +20°C° 0 mm 2 m/S 759 mmHg 58%
    21:00 +19°C° 0 mm 2 m/S 759 mmHg 60%
    22:00 +18°C° 0 mm 3 m/S 759 mmHg 61%
    23:00 +17°C° 0 mm 3 m/S 759 mmHg 62%

    8 Juni, Montag

    Zeit Temperatur Niederschläge Wind Luftdruck Luftfeuchtigkeit
    00:00 +17°C° 0 mm 3 m/S 760 mmHg 63%
    01:00 +17°C° 0 mm 3 m/S 760 mmHg 65%
    02:00 +16°C° 0 mm 3 m/S 760 mmHg 66%
    03:00 +16°C° 0 mm 3 m/S 760 mmHg 67%
    04:00 +14°C° 0 mm 4 m/S 760 mmHg 68%
    05:00 +15°C° 0 mm 4 m/S 760 mmHg 65%
    06:00 +17°C° 0 mm 5 m/S 760 mmHg 61%
    07:00 +19°C° 0 mm 5 m/S 760 mmHg 58%
    08:00 +21°C° 0 mm 5 m/S 761 mmHg 55%
    09:00 +23°C° 0 mm 5 m/S 761 mmHg 51%
    10:00 +25°C° 0 mm 5 m/S 761 mmHg 48%
    11:00 +27°C° 0 mm 6 m/S 761 mmHg 44%
    12:00 +28°C° 0 mm 6 m/S 761 mmHg 40%
    13:00 +29°C° 0 mm 6 m/S 761 mmHg 36%
    14:00 +29°C° 0 mm 6 m/S 761 mmHg 36%
    15:00 +29°C° 0 mm 6 m/S 760 mmHg 37%
    16:00 +29°C° 0 mm 5 m/S 760 mmHg 37%
    17:00 +28°C° 0 mm 5 m/S 760 mmHg 42%
    18:00 +27°C° 0 mm 5 m/S 760 mmHg 48%
    19:00 +26°C° 0 mm 4 m/S 761 mmHg 53%
    20:00 +25°C° 0 mm 4 m/S 761 mmHg 55%
    21:00 +22°C° 0 mm 4 m/S 761 mmHg 57%
    22:00 +20°C° 0 mm 4 m/S 761 mmHg 59%
    23:00 +20°C° 0 mm 4 m/S 761 mmHg 60%
    Mehr zeigen